Location: La Comballaz
(46.3780°N, 7.0817°E)
Time: 16:23:49
(UTC+00:00)

APEX - Pass Details

Date: 09 April 2020
Orbit: 331 x 1114 km, 69.9° (Epoch: 23 May)

Event Time Altitude Azimuth Distance (km) Brightness Sun altitude
Rises 18:28:25 0° 332° (NNW) 3,831 8.3 -3.6°
Reaches altitude 10° 18:31:18 10° 336° (NNW) 2,793 7.5 -4.1°
Maximum altitude 18:37:46 60° 56° (NE) 999 4.5 -5.2°
Drops below altitude 10° 18:43:01 10° 137° (SE) 2,274 5.9 -6.0°
Enters shadow 18:44:28 - 140° (SE) 2,815 6.4 -6.3°
